• In Schweiz
  • Länderverzeichnis
  • Für 7 Tage
  • Wassertemperatur
  • Satellitenkarten
  • Wetterkarte
  • Widgets
  • user-avatar
    Anmelden

    Stündliche Wetter Serhiivka

    Heute, 18 Juli, Mittwoch

    Zeit Temperatur Niederschläge Wind Luftdruck Luftfeuchtigkeit
    00:00 +21°C° 0 mm 4 m/S 738 mmHg 69%
    01:00 +20°C° 0 mm 4 m/S 738 mmHg 70%
    02:00 +20°C° 0 mm 4 m/S 738 mmHg 71%
    03:00 +20°C° 0 mm 4 m/S 738 mmHg 74%
    04:00 +20°C° 0 mm 4 m/S 738 mmHg 76%
    05:00 +20°C° 0 mm 4 m/S 738 mmHg 78%
    06:00 +21°C° 0 mm 4 m/S 738 mmHg 72%
    07:00 +23°C° 0 mm 5 m/S 738 mmHg 65%
    08:00 +26°C° 0 mm 5 m/S 738 mmHg 59%
    09:00 +27°C° 0,2 mm 6 m/S 738 mmHg 56%
    10:00 +28°C° 0,2 mm 6 m/S 738 mmHg 53%
    11:00 +29°C° 0,2 mm 6 m/S 738 mmHg 51%
    12:00 +28°C° 0,7 mm 6 m/S 738 mmHg 52%
    13:00 +28°C° 0,7 mm 7 m/S 738 mmHg 54%
    14:00 +28°C° 0,7 mm 7 m/S 738 mmHg 56%
    15:00 +27°C° 0,8 mm 6 m/S 738 mmHg 57%
    16:00 +27°C° 0,8 mm 6 m/S 738 mmHg 58%
    17:00 +27°C° 0,8 mm 6 m/S 738 mmHg 59%
    18:00 +26°C° 0,4 mm 5 m/S 738 mmHg 63%
    19:00 +25°C° 0,4 mm 5 m/S 738 mmHg 67%
    20:00 +23°C° 0,4 mm 4 m/S 738 mmHg 71%
    21:00 +23°C° 0 mm 4 m/S 738 mmHg 73%
    22:00 +22°C° 0 mm 4 m/S 738 mmHg 74%
    23:00 +22°C° 0 mm 5 m/S 738 mmHg 76%

    Morgen, 19 Juli, Donnerstag

    Zeit Temperatur Niederschläge Wind Luftdruck Luftfeuchtigkeit
    00:00 +21°C° 0 mm 4 m/S 738 mmHg 77%
    01:00 +21°C° 0 mm 3 m/S 738 mmHg 79%
    02:00 +21°C° 0 mm 3 m/S 738 mmHg 80%
    03:00 +21°C° 0 mm 3 m/S 738 mmHg 80%
    04:00 +21°C° 0 mm 2 m/S 738 mmHg 80%
    05:00 +21°C° 0 mm 2 m/S 738 mmHg 81%
    06:00 +23°C° 0,1 mm 2 m/S 738 mmHg 74%
    07:00 +25°C° 0,1 mm 3 m/S 739 mmHg 67%
    08:00 +27°C° 0,1 mm 3 m/S 739 mmHg 60%
    09:00 +28°C° 0 mm 4 m/S 739 mmHg 56%
    10:00 +29°C° 0 mm 4 m/S 739 mmHg 52%
    11:00 +30°C° 0 mm 5 m/S 739 mmHg 48%
    12:00 +30°C° 0 mm 5 m/S 739 mmHg 49%
    13:00 +30°C° 0 mm 5 m/S 739 mmHg 49%
    14:00 +30°C° 0 mm 6 m/S 739 mmHg 50%
    15:00 +29°C° 0 mm 5 m/S 739 mmHg 51%
    16:00 +29°C° 0 mm 5 m/S 739 mmHg 53%
    17:00 +28°C° 0 mm 4 m/S 739 mmHg 54%
    18:00 +27°C° 0 mm 4 m/S 739 mmHg 59%
    19:00 +25°C° 0 mm 3 m/S 740 mmHg 64%
    20:00 +24°C° 0 mm 3 m/S 740 mmHg 69%
    21:00 +22°C° 0 mm 3 m/S 740 mmHg 72%
    22:00 +22°C° 0 mm 3 m/S 740 mmHg 74%
    23:00 +21°C° 0 mm 3 m/S 740 mmHg 77%

    übermorgen, 20 Juli, Freitag

    Zeit Temperatur Niederschläge Wind Luftdruck Luftfeuchtigkeit
    00:00 +21°C° 0 mm 3 m/S 740 mmHg 79%
    01:00 +21°C° 0 mm 2 m/S 740 mmHg 81%
    02:00 +21°C° 0 mm 2 m/S 740 mmHg 83%
    03:00 +21°C° 0 mm 2 m/S 740 mmHg 83%
    04:00 +21°C° 0 mm 2 m/S 740 mmHg 82%
    05:00 +21°C° 0 mm 2 m/S 740 mmHg 82%
    06:00 +24°C° 0,2 mm 2 m/S 740 mmHg 75%
    07:00 +26°C° 0,2 mm 3 m/S 740 mmHg 68%
    08:00 +28°C° 0,2 mm 4 m/S 740 mmHg 61%
    09:00 +28°C° 0,2 mm 4 m/S 740 mmHg 59%
    10:00 +29°C° 0,2 mm 5 m/S 740 mmHg 56%
    11:00 +30°C° 0,2 mm 5 m/S 740 mmHg 54%
    12:00 +30°C° 0 mm 5 m/S 740 mmHg 52%
    13:00 +30°C° 0 mm 4 m/S 740 mmHg 51%
    14:00 +30°C° 0 mm 4 m/S 740 mmHg 50%
    15:00 +30°C° 0 mm 4 m/S 740 mmHg 51%
    16:00 +30°C° 0 mm 4 m/S 740 mmHg 52%
    17:00 +29°C° 0 mm 3 m/S 740 mmHg 53%
    18:00 +28°C° 0 mm 3 m/S 740 mmHg 59%
    19:00 +26°C° 0 mm 3 m/S 740 mmHg 65%
    20:00 +24°C° 0 mm 3 m/S 740 mmHg 71%
    21:00 +24°C° 0 mm 2 m/S 740 mmHg 74%
    22:00 +23°C° 0 mm 2 m/S 740 mmHg 78%
    23:00 +23°C° 0 mm 2 m/S 740 mmHg 81%

    21 Juli, Samstag

    Zeit Temperatur Niederschläge Wind Luftdruck Luftfeuchtigkeit
    00:00 +21°C° 0 mm 2 m/S 740 mmHg 82%
    01:00 +22°C° 0 mm 1 m/S 740 mmHg 84%
    02:00 +22°C° 0 mm 1 m/S 740 mmHg 85%
    03:00 +22°C° 0 mm 1 m/S 740 mmHg 84%
    04:00 +23°C° 0 mm 1 m/S 740 mmHg 83%
    05:00 +23°C° 0 mm 1 m/S 740 mmHg 82%
    06:00 +25°C° 0,4 mm 2 m/S 740 mmHg 75%
    07:00 +26°C° 0,4 mm 2 m/S 740 mmHg 68%
    08:00 +28°C° 0,4 mm 3 m/S 740 mmHg 61%
    09:00 +29°C° 0,8 mm 3 m/S 740 mmHg 59%
    10:00 +29°C° 0,8 mm 4 m/S 740 mmHg 57%
    11:00 +30°C° 0,8 mm 5 m/S 741 mmHg 55%
    12:00 +30°C° 0,5 mm 5 m/S 740 mmHg 54%
    13:00 +30°C° 0,5 mm 5 m/S 740 mmHg 54%
    14:00 +30°C° 0,5 mm 5 m/S 740 mmHg 53%
    15:00 +30°C° 0,2 mm 4 m/S 740 mmHg 55%
    16:00 +30°C° 0,2 mm 4 m/S 740 mmHg 56%
    17:00 +29°C° 0,2 mm 3 m/S 740 mmHg 57%
    18:00 +28°C° 0,1 mm 3 m/S 740 mmHg 62%
    19:00 +27°C° 0,1 mm 3 m/S 741 mmHg 67%
    20:00 +25°C° 0,1 mm 3 m/S 741 mmHg 71%
    21:00 +25°C° 0,3 mm 3 m/S 741 mmHg 75%
    22:00 +24°C° 0,3 mm 3 m/S 741 mmHg 78%
    23:00 +24°C° 0,3 mm 2 m/S 741 mmHg 81%

    22 Juli, Sonntag

    Zeit Temperatur Niederschläge Wind Luftdruck Luftfeuchtigkeit
    00:00 +23°C° 0,2 mm 2 m/S 741 mmHg 83%
    01:00 +23°C° 0,2 mm 2 m/S 740 mmHg 84%
    02:00 +23°C° 0,2 mm 2 m/S 740 mmHg 86%
    03:00 +23°C° 0 mm 2 m/S 740 mmHg 87%
    04:00 +21°C° 0 mm 2 m/S 741 mmHg 88%
    05:00 +21°C° 0 mm 2 m/S 741 mmHg 89%
    06:00 +24°C° 0 mm 2 m/S 741 mmHg 83%
    07:00 +25°C° 0 mm 2 m/S 741 mmHg 76%
    08:00 +26°C° 0 mm 2 m/S 741 mmHg 70%
    09:00 +28°C° 0 mm 2 m/S 741 mmHg 64%
    10:00 +29°C° 0 mm 3 m/S 741 mmHg 58%
    11:00 +30°C° 0 mm 3 m/S 741 mmHg 52%
    12:00 +30°C° 0 mm 3 m/S 741 mmHg 51%
    13:00 +32°C° 0 mm 4 m/S 741 mmHg 50%
    14:00 +32°C° 0 mm 4 m/S 740 mmHg 49%
    15:00 +32°C° 0 mm 4 m/S 740 mmHg 50%
    16:00 +30°C° 0 mm 4 m/S 740 mmHg 52%
    17:00 +30°C° 0 mm 3 m/S 740 mmHg 53%
    18:00 +29°C° 0 mm 3 m/S 741 mmHg 57%
    19:00 +28°C° 0 mm 3 m/S 741 mmHg 61%
    20:00 +27°C° 0 mm 3 m/S 741 mmHg 64%
    21:00 +26°C° 0 mm 3 m/S 741 mmHg 67%
    22:00 +25°C° 0 mm 3 m/S 741 mmHg 69%
    23:00 +24°C° 0 mm 3 m/S 741 mmHg 72%

    23 Juli, Montag

    Zeit Temperatur Niederschläge Wind Luftdruck Luftfeuchtigkeit
    00:00 +24°C° 0 mm 2 m/S 741 mmHg 73%
    01:00 +24°C° 0 mm 2 m/S 740 mmHg 73%
    02:00 +24°C° 0 mm 2 m/S 740 mmHg 74%
    03:00 +24°C° 0 mm 2 m/S 740 mmHg 74%
    04:00 +24°C° 0 mm 1 m/S 741 mmHg 73%
    05:00 +24°C° 0 mm 1 m/S 741 mmHg 73%
    06:00 +26°C° 0 mm 1 m/S 741 mmHg 67%
    07:00 +27°C° 0 mm 1 m/S 741 mmHg 62%
    08:00 +29°C° 0 mm 1 m/S 741 mmHg 56%
    09:00 +30°C° 0 mm 2 m/S 741 mmHg 53%
    10:00 +30°C° 0 mm 2 m/S 741 mmHg 50%
    11:00 +31°C° 0 mm 3 m/S 741 mmHg 47%
    12:00 +31°C° 0 mm 3 m/S 741 mmHg 47%
    13:00 +31°C° 0 mm 3 m/S 741 mmHg 46%
    14:00 +31°C° 0 mm 2 m/S 741 mmHg 46%
    15:00 +31°C° 0 mm 2 m/S 741 mmHg 46%
    16:00 +31°C° 0 mm 2 m/S 741 mmHg 47%
    17:00 +31°C° 0 mm 2 m/S 741 mmHg 48%
    18:00 +30°C° 0 mm 2 m/S 741 mmHg 52%
    19:00 +28°C° 0 mm 1 m/S 741 mmHg 56%
    20:00 +27°C° 0 mm 1 m/S 741 mmHg 60%
    21:00 +26°C° 0 mm 1 m/S 741 mmHg 62%
    22:00 +26°C° 0 mm 1 m/S 741 mmHg 64%
    23:00 +25°C° 0 mm 1 m/S 741 mmHg 66%
    Mehr zeigen